Showing default

EMISAT, 44078

Orbit data source: Space-Track

EMISAT, 44078 is a payload satellite owned by ISRO (IN) in SSO that was launched on Mon, 01 Apr 2019 UTC via a PSLV-QL launch vehicle from the Sirharikota (SRI). Payload-class satellites include a variety of spacecraft equipped with specific instruments for various scientific and technological missions. These include communications satellites like Starlink; space stations such as the ISS; scientific satellites like the Hubble; Earth observation satellites from companies like Planet Labs, Umbra, and HawkEye 360; GPS; miniature CubeSats for education and research; and military/defense satellites.

Loading next visibility...
Identifier
44078, 2019-018A
Orbit
SSO
Country
Flag of ININ / IND
Related business
Manufacturer
ISRO
Mission
Operational Defense Sigint
Bus & Motor
SSB-2, AOCS
Mass
436 kg wet, ~380 kg dry
Launch date (UTC)
2019-04-01 (7 years ago)
Launch vehicle
PSLV-QL
Launch site
Sirharikota (SRI)
Object type
Payload
Rocket body
Debris
Shape & HBR
Box + 2 Pan, 3.0 m
Radar Cross Section
4.485 m², Large (>1 m²)

Expand to show TLE details & history
Last TLE update: 8 hours ago

TLE from 8 hours ago
0 EMISAT
1 44078U 19018A   26258.31491287  .00000074  00000-0  34844-4 0  9998
2 44078  98.4558 316.5772 0017418 309.1454  50.8188 14.43668524393066
Epoch: 2026-09-15T07:33Z
TLE epoch observation values (Epoch: 2026-09-15T07:33:28.471Z)
Latitude
-0.00003°
Longitude
-151.07405°
Altitude
741.53 km
Speed
7.488 km/s
True Right ascension
21h 06m 18s
True Declination
0° 00' 00"
Sunlit
Object was in full shadow at epoch
Visualization orbit readout
Latitude
Unknown
Longitude
Unknown
Altitude
Unknown
Speed
Unknown
Apparent Right ascension
Unknown
Apparent Declination
Unknown
Sunlit
N/A
Visualization observer readout
Local Sidereal Time
08:09:30
Azimuth
Unknown
Elevation
Unknown
Doppler factor
Unknown
Orbital elements
Apogee altitude
755.923 km
Perigee altitude
731.114 km
Semi-major axis
7,121.655 km
Eccentricity
0.00174
Inclination
98.4558°
RAAN
316.5772°
Arg. of periapsis
309.1454°
True anomaly
50.97373°
Mean anomaly
50.8188°
Eccentric anomaly
50.89624°
Mean motion
3.61137 °/min
Orbital period
99.69 mins
BSTAR
0.000034844
Loading maneuver chart data...
Computing Atmospheric mass density...

Documentation

Showing up to 5 results
|